This demonstration page uses our WeatherBlox Daily Observations layout. Learn more.

Left ArrowRight Arrow

39.12711, -84.51439

Hourly Observations for June 4, 2016

Temp ( °F °C ) Dew Point ( °F °C ) Humidity (%) Winds ( mph kmh ) Pressure ( in mb ) Visibility ( mi km ) Precip ( " mm )
12:53 am 00:53 Clear 68 20 63 17.2 84 84 N N/A 30.01 1016 10 16 N/A
1:53 am 01:53 Clear 67 19.4 63 17.2 87 87 N N/A 29.99 1016 10 16 N/A
2:53 am 02:53 Partly Cloudy 65 18.3 63 17.2 93 93 N N/A 29.98 1015 10 16 N/A
3:53 am 03:53 Cloudy with Light Rain 66 18.9 65 18.3 96 96 N N/A 29.98 1015 9 14 N/A
4:53 am 04:53 Cloudy with Light Rain 66 18.9 66 18.9 100 100 S 6 9 29.98 1015 6 10 0.01 0.25
5:43 am 05:43 Cloudy with Rain 66 19 66 19 100 100 VRB 3 6 29.97 1015 2 3 N/A
5:53 am 05:53 Cloudy with Light Rain 67 19.4 66 18.9 97 97 NNE 6 9 29.97 1015 4 6 0.07 1.78
6:53 am 06:53 Cloudy with Mist and Fog 66 19 66 19 100 100 N N/A 29.97 1015 6 10 N/A
7:53 am 07:53 Cloudy with Mist and Fog 67 19.4 67 19.4 100 100 N N/A 29.98 1015 6 10 N/A
8:53 am 08:53 Cloudy 69 20.6 66 18.9 90 90 NE 3 6 29.96 1015 10 16 N/A
9:53 am 09:53 Mostly Cloudy 72 22.2 66 18.9 82 82 ENE 6 9 29.96 1014 10 16 N/A
10:53 am 10:53 Partly Cloudy 73 22.8 66 18.9 79 79 E 3 6 29.94 1014 10 16 N/A
11:53 am 11:53 Mostly Sunny 75 23.9 66 18.9 74 74 SE 6 9 29.93 1013 10 16 N/A
12:53 pm 12:53 Mostly Cloudy 76 24.4 67 19.4 74 74 S 7 11 29.90 1013 10 16 N/A
1:53 pm 13:53 Mostly Cloudy 79 26.1 69 20.6 72 72 VRB 3 6 29.86 1011 10 16 N/A
2:53 pm 14:53 Mostly Cloudy 78 25.6 70 21.1 76 76 SSW 5 7 29.83 1010 10 16 N/A
3:53 pm 15:53 Mostly Cloudy 77 25 72 22.2 85 85 SW 5 7 29.83 1010 8 13 0.05 1.27
4:53 pm 16:53 Mostly Sunny 77 25 72 22.2 85 85 SSE 9 15 29.80 1009 10 16 N/A
5:34 pm 17:34 Mostly Cloudy with Light Rain 73 23 70 21 89 89 SE 15 24 29.80 1009 8 13 N/A
5:53 pm 17:53 Cloudy with Light Rain 73 22.8 71 21.7 94 94 S 10 17 29.78 1009 6 10 0.13 3.30
6:53 pm 18:53 Mostly Cloudy with Light Rain 71 21.7 70 21.1 96 96 S 10 17 29.77 1008 9 14 0.01 0.25
7:08 pm 19:08 Cloudy with Thunderstorms 72 22 70 21 94 94 SSW 9 15 29.80 1009 5 8 N/A
7:22 pm 19:22 Cloudy with Light Rain 71 21.7 71 21.7 100 100 S 7 11 29.77 1008 3 5 0.06 1.52
7:53 pm 19:53 Mostly Cloudy with Light Rain 72 22.2 70 21.1 94 94 SSW 10 17 29.76 1008 8 13 0.09 2.29
8:53 pm 20:53 Mostly Sunny 69 20.6 68 20 96 96 S 3 6 29.79 1009 10 16 N/A
9:53 pm 21:53 Mostly Cloudy 69 20.6 68 20 96 96 S 8 13 29.78 1009 10 16 N/A
10:53 pm 22:53 Cloudy 69 20.6 68 20 96 96 SSW 7 11 29.78 1009 10 16 N/A
11:05 pm 23:05 Cloudy 69 20.6 69 20.6 100 100 S 9 15 29.80 1009 10 16 N/A
11:53 pm 23:53 Cloudy 70 21.1 69 20.6 97 97 SW 7 11 29.79 1009 10 16 N/A

Powered by AerisWeather